Time,TemperatureF,DewpointF,PressureIn,WindDirection,WindDirectionDegrees,WindSpeedMPH,WindSpeedGustMPH,Humidity,HourlyPrecipIn,Conditions,Clouds,dailyrainin,SoftwareType,DateUTC
2013-05-21 00:04:00,52.5,39.0,31.85,ENE,63,3.0,9.0,61,0.00,,,0.00,weatherlink.com 1.10,2013-05-21 06:04:00,
2013-05-21 00:19:00,53.2,39.0,31.84,ENE,65,10.0,10.0,59,0.00,,,0.00,weatherlink.com 1.10,2013-05-21 06:19:00,
2013-05-21 00:34:00,53.1,38.0,31.84,East,79,10.0,13.0,58,0.00,,,0.00,weatherlink.com 1.10,2013-05-21 06:34:00,
2013-05-21 00:49:00,53.1,38.0,31.84,East,90,13.0,15.0,58,0.00,,,0.00,weatherlink.com 1.10,2013-05-21 06:49:00,
2013-05-21 01:04:00,52.9,38.0,31.83,ENE,75,10.0,12.0,58,0.00,,,0.00,weatherlink.com 1.10,2013-05-21 07:04:00,
2013-05-21 01:19:00,52.6,38.0,31.82,East,80,10.0,13.0,58,0.00,,,0.00,weatherlink.com 1.10,2013-05-21 07:19:00,
2013-05-21 01:34:00,52.6,38.0,31.82,East,85,6.0,11.0,58,0.00,,,0.00,weatherlink.com 1.10,2013-05-21 07:34:00,
2013-05-21 01:49:00,52.7,38.0,31.82,ENE,77,7.0,9.0,58,0.00,,,0.00,weatherlink.com 1.10,2013-05-21 07:49:00,
2013-05-21 02:05:00,52.4,38.0,31.81,East,99,9.0,11.0,58,0.00,,,0.00,weatherlink.com 1.10,2013-05-21 08:05:00,
2013-05-21 02:20:00,52.6,38.0,31.81,East,94,8.0,13.0,58,0.00,,,0.00,weatherlink.com 1.10,2013-05-21 08:20:00,
2013-05-21 02:35:00,52.5,38.0,31.81,East,94,7.0,12.0,59,0.00,,,0.00,weatherlink.com 1.10,2013-05-21 08:35:00,
2013-05-21 02:50:00,52.5,38.0,31.81,East,96,5.0,10.0,59,0.00,,,0.00,weatherlink.com 1.10,2013-05-21 08:50:00,
2013-05-21 03:05:00,52.0,38.0,31.80,SE,125,6.0,9.0,60,0.00,,,0.00,weatherlink.com 1.10,2013-05-21 09:05:00,
2013-05-21 03:20:00,51.4,38.0,31.80,East,101,5.0,7.0,61,0.00,,,0.00,weatherlink.com 1.10,2013-05-21 09:20:00,
2013-05-21 03:35:00,50.9,38.0,31.80,ESE,109,2.0,6.0,62,0.00,,,0.00,weatherlink.com 1.10,2013-05-21 09:35:00,
2013-05-21 03:50:00,50.0,38.0,31.79,SSE,153,3.0,4.0,64,0.00,,,0.00,weatherlink.com 1.10,2013-05-21 09:50:00,
2013-05-21 04:05:00,49.3,38.0,31.78,ESE,102,3.0,5.0,66,0.00,,,0.00,weatherlink.com 1.10,2013-05-21 10:05:00,
2013-05-21 04:20:00,49.8,38.0,31.78,ESE,121,8.0,8.0,65,0.00,,,0.00,weatherlink.com 1.10,2013-05-21 10:20:00,
2013-05-21 04:35:00,49.6,39.0,31.78,SE,131,5.0,8.0,66,0.00,,,0.00,weatherlink.com 1.10,2013-05-21 10:35:00,
2013-05-21 04:50:00,49.0,38.0,31.77,East,100,5.0,9.0,67,0.00,,,0.00,weatherlink.com 1.10,2013-05-21 10:50:00,
2013-05-21 05:05:00,48.1,39.0,31.77,East,96,5.0,6.0,70,0.00,,,0.00,weatherlink.com 1.10,2013-05-21 11:05:00,
2013-05-21 05:20:00,48.9,39.0,31.77,ESE,115,7.0,8.0,68,0.00,,,0.00,weatherlink.com 1.10,2013-05-21 11:20:00,
2013-05-21 05:35:00,49.1,38.0,31.77,ESE,123,3.0,10.0,67,0.00,,,0.00,weatherlink.com 1.10,2013-05-21 11:35:00,
2013-05-21 05:50:00,49.0,38.0,31.77,East,92,10.0,11.0,67,0.00,,,0.00,weatherlink.com 1.10,2013-05-21 11:50:00,
2013-05-21 06:05:00,49.0,38.0,31.77,ESE,110,10.0,12.0,67,0.00,,,0.00,weatherlink.com 1.10,2013-05-21 12:05:00,
2013-05-21 06:20:00,48.5,38.0,31.76,ESE,109,8.0,11.0,68,0.00,,,0.00,weatherlink.com 1.10,2013-05-21 12:20:00,
2013-05-21 06:35:00,49.0,38.0,31.76,East,92,8.0,14.0,67,0.00,,,0.00,weatherlink.com 1.10,2013-05-21 12:35:00,
2013-05-21 06:50:00,50.2,38.0,31.76,ESE,121,8.0,13.0,63,0.00,,,0.00,weatherlink.com 1.10,2013-05-21 12:50:00,
2013-05-21 07:05:00,49.5,38.0,31.76,ESE,114,7.0,13.0,65,0.00,,,0.00,weatherlink.com 1.10,2013-05-21 13:05:00,
2013-05-21 07:20:00,49.5,38.0,31.74,ESE,118,3.0,8.0,66,0.00,,,0.00,weatherlink.com 1.10,2013-05-21 13:20:00,
2013-05-21 07:35:00,50.0,39.0,31.74,ESE,120,3.0,8.0,65,0.00,,,0.00,weatherlink.com 1.10,2013-05-21 13:35:00,
2013-05-21 07:51:00,50.3,39.0,31.73,ESE,117,5.0,8.0,66,0.00,,,0.00,weatherlink.com 1.10,2013-05-21 13:51:00,
2013-05-21 08:06:00,50.9,39.0,31.72,ESE,115,7.0,13.0,64,0.00,,,0.00,weatherlink.com 1.10,2013-05-21 14:06:00,
2013-05-21 08:21:00,51.4,40.0,31.72,SE,129,8.0,12.0,65,0.00,,,0.00,weatherlink.com 1.10,2013-05-21 14:21:00,
2013-05-21 08:36:00,52.1,40.0,31.71,SE,130,9.0,9.0,64,0.00,,,0.00,weatherlink.com 1.10,2013-05-21 14:36:00,
2013-05-21 08:51:00,52.3,40.0,31.71,ESE,122,5.0,8.0,64,0.00,,,0.00,weatherlink.com 1.10,2013-05-21 14:51:00,
2013-05-21 09:06:00,53.0,41.0,31.70,ESE,123,3.0,8.0,65,0.00,,,0.00,weatherlink.com 1.10,2013-05-21 15:06:00,
2013-05-21 09:21:00,53.5,41.0,31.69,SE,134,5.0,9.0,64,0.00,,,0.00,weatherlink.com 1.10,2013-05-21 15:21:00,
2013-05-21 09:36:00,53.4,41.0,31.68,SE,142,6.0,8.0,64,0.00,,,0.00,weatherlink.com 1.10,2013-05-21 15:36:00,
2013-05-21 09:51:00,54.4,41.0,31.67,SE,136,7.0,11.0,60,0.00,,,0.00,weatherlink.com 1.10,2013-05-21 15:51:00,
2013-05-21 10:06:00,55.8,40.0,31.66,SSE,153,8.0,12.0,55,0.00,,,0.00,weatherlink.com 1.10,2013-05-21 16:06:00,
2013-05-21 10:21:00,56.7,40.0,31.65,SSE,154,7.0,13.0,54,0.00,,,0.00,weatherlink.com 1.10,2013-05-21 16:21:00,
2013-05-21 10:36:00,57.7,41.0,31.64,SSW,198,6.0,12.0,54,0.00,,,0.00,weatherlink.com 1.10,2013-05-21 16:36:00,
2013-05-21 10:51:00,58.2,41.0,31.62,SE,133,8.0,12.0,53,0.00,,,0.00,weatherlink.com 1.10,2013-05-21 16:51:00,
2013-05-21 11:06:00,58.5,42.0,31.61,South,171,5.0,9.0,54,0.00,,,0.00,weatherlink.com 1.10,2013-05-21 17:06:00,
2013-05-21 11:21:00,58.8,41.0,31.60,SSE,150,3.0,8.0,52,0.00,,,0.00,weatherlink.com 1.10,2013-05-21 17:21:00,
2013-05-21 11:36:00,60.3,41.0,31.59,ENE,77,5.0,9.0,49,0.00,,,0.00,weatherlink.com 1.10,2013-05-21 17:36:00,
2013-05-21 12:06:00,60.9,40.0,31.57,South,184,2.0,9.0,46,0.00,,,0.00,weatherlink.com 1.10,2013-05-21 18:06:00,
2013-05-21 12:22:00,62.6,42.0,31.56,South,186,6.0,9.0,48,0.00,,,0.00,weatherlink.com 1.10,2013-05-21 18:22:00,
2013-05-21 12:37:00,64.4,41.0,31.55,ESE,116,4.0,12.0,43,0.00,,,0.00,weatherlink.com 1.10,2013-05-21 18:37:00,
2013-05-21 12:52:00,62.6,38.0,31.54,SE,140,8.0,12.0,41,0.00,,,0.00,weatherlink.com 1.10,2013-05-21 18:52:00,
2013-05-21 13:07:00,62.4,38.0,31.53,SSW,205,4.0,11.0,41,0.00,,,0.00,weatherlink.com 1.10,2013-05-21 19:07:00,
2013-05-21 13:22:00,63.5,38.0,31.52,SSW,198,3.0,10.0,39,0.00,,,0.00,weatherlink.com 1.10,2013-05-21 19:22:00,
2013-05-21 13:37:00,64.3,38.0,31.50,SSE,150,1.0,9.0,38,0.00,,,0.00,weatherlink.com 1.10,2013-05-21 19:37:00,
2013-05-21 13:52:00,65.6,36.0,31.49,SSE,147,6.0,13.0,34,0.00,,,0.00,weatherlink.com 1.10,2013-05-21 19:52:00,
2013-05-21 14:07:00,65.8,35.0,31.48,SE,142,6.0,13.0,32,0.00,,,0.00,weatherlink.com 1.10,2013-05-21 20:07:00,
2013-05-21 14:22:00,64.8,36.0,31.47,South,190,3.0,10.0,34,0.00,,,0.00,weatherlink.com 1.10,2013-05-21 20:22:00,
2013-05-21 14:37:00,65.6,36.0,31.46,SE,136,10.0,10.0,34,0.00,,,0.00,weatherlink.com 1.10,2013-05-21 20:37:00,
2013-05-21 14:52:00,66.8,36.0,31.45,SSE,152,8.0,8.0,32,0.00,,,0.00,weatherlink.com 1.10,2013-05-21 20:52:00,
2013-05-21 15:07:00,68.0,38.0,31.44,SSE,154,11.0,13.0,33,0.00,,,0.00,weatherlink.com 1.10,2013-05-21 21:07:00,
2013-05-21 15:22:00,66.8,37.0,31.43,SSW,195,5.0,12.0,33,0.00,,,0.00,weatherlink.com 1.10,2013-05-21 21:22:00,
2013-05-21 15:37:00,67.4,37.0,31.42,South,173,7.0,10.0,33,0.00,,,0.00,weatherlink.com 1.10,2013-05-21 21:37:00,
2013-05-21 15:52:00,66.4,36.0,31.42,WSW,254,2.0,10.0,32,0.00,,,0.00,weatherlink.com 1.10,2013-05-21 21:52:00,
2013-05-21 16:07:00,-999.0,-99.9,31.41,North,-999,-999.0,-999.0,-999,0.00,,,0.00,weatherlink.com 1.10,2013-05-21 22:07:00,
2013-05-21 16:22:00,66.1,40.0,31.39,South,186,6.0,7.0,38,0.00,,,0.00,weatherlink.com 1.10,2013-05-21 22:22:00,
2013-05-21 16:37:00,66.3,35.0,31.39,SSE,165,0.0,8.0,31,0.00,,,0.00,weatherlink.com 1.10,2013-05-21 22:37:00,
2013-05-21 16:52:00,65.9,37.0,31.39,ENE,62,3.0,7.0,35,0.00,,,0.00,weatherlink.com 1.10,2013-05-21 22:52:00,
2013-05-21 17:07:00,63.7,36.0,31.39,South,169,4.0,16.0,36,0.00,,,0.00,weatherlink.com 1.10,2013-05-21 23:07:00,
2013-05-21 17:22:00,63.6,37.0,31.38,East,84,3.0,7.0,37,0.00,,,0.00,weatherlink.com 1.10,2013-05-21 23:22:00,
2013-05-21 17:37:00,63.2,37.0,31.37,NNW,346,6.0,9.0,38,0.00,,,0.00,weatherlink.com 1.10,2013-05-21 23:37:00,
2013-05-21 17:52:00,62.6,39.0,31.39,ESE,115,12.0,14.0,42,0.00,,,0.00,weatherlink.com 1.10,2013-05-21 23:52:00,
2013-05-21 18:07:00,61.8,39.0,31.37,East,96,14.0,17.0,43,0.00,,,0.00,weatherlink.com 1.10,2013-05-22 00:07:00,
2013-05-21 18:22:00,62.6,38.0,31.37,East,90,13.0,15.0,41,0.00,,,0.00,weatherlink.com 1.10,2013-05-22 00:22:00,
2013-05-21 18:37:00,62.6,37.0,31.37,ESE,111,15.0,17.0,39,0.00,,,0.00,weatherlink.com 1.10,2013-05-22 00:37:00,
2013-05-21 18:52:00,61.6,37.0,31.37,ESE,122,21.0,32.0,40,0.00,,,0.00,weatherlink.com 1.10,2013-05-22 00:52:00,
2013-05-21 19:07:00,60.2,37.0,31.36,ESE,106,7.0,23.0,43,0.00,,,0.00,weatherlink.com 1.10,2013-05-22 01:07:00,
2013-05-21 19:23:00,60.9,38.0,31.35,NE,41,13.0,20.0,43,0.00,,,0.00,weatherlink.com 1.10,2013-05-22 01:23:00,
2013-05-21 19:38:00,61.7,36.0,31.34,East,87,14.0,25.0,39,0.00,,,0.00,weatherlink.com 1.10,2013-05-22 01:38:00,
2013-05-21 19:53:00,62.6,36.0,31.34,ENE,58,14.0,24.0,37,0.00,,,0.00,weatherlink.com 1.10,2013-05-22 01:53:00,
2013-05-21 20:08:00,62.3,36.0,31.34,East,87,21.0,28.0,37,0.00,,,0.00,weatherlink.com 1.10,2013-05-22 02:08:00,
2013-05-21 20:23:00,60.7,37.0,31.34,East,86,16.0,27.0,42,0.00,,,0.00,weatherlink.com 1.10,2013-05-22 02:23:00,
2013-05-21 20:38:00,58.4,39.0,31.36,ENE,76,21.0,25.0,49,0.00,,,0.00,weatherlink.com 1.10,2013-05-22 02:38:00,
2013-05-21 20:53:00,58.2,39.0,31.36,NNE,33,11.0,26.0,49,0.00,,,0.00,weatherlink.com 1.10,2013-05-22 02:53:00,
2013-05-21 21:08:00,58.5,39.0,31.36,ESE,120,11.0,30.0,48,0.00,,,0.00,weatherlink.com 1.10,2013-05-22 03:08:00,
2013-05-21 21:23:00,58.6,39.0,31.37,East,88,24.0,26.0,48,0.00,,,0.00,weatherlink.com 1.10,2013-05-22 03:23:00,
2013-05-21 21:38:00,58.2,39.0,31.37,East,84,13.0,24.0,49,0.00,,,0.00,weatherlink.com 1.10,2013-05-22 03:38:00,
2013-05-21 21:53:00,57.6,40.0,31.38,ENE,66,4.0,23.0,52,0.00,,,0.00,weatherlink.com 1.10,2013-05-22 03:53:00,
2013-05-21 22:08:00,56.7,40.0,31.40,East,100,14.0,17.0,55,0.00,,,0.00,weatherlink.com 1.10,2013-05-22 04:08:00,
2013-05-21 22:23:00,56.8,40.0,31.40,East,92,2.0,16.0,54,0.00,,,0.00,weatherlink.com 1.10,2013-05-22 04:23:00,
2013-05-21 22:38:00,55.6,41.0,31.41,NNW,337,12.0,22.0,58,0.00,,,0.00,weatherlink.com 1.10,2013-05-22 04:38:00,
2013-05-21 22:53:00,55.4,41.0,31.41,North,5,12.0,17.0,59,0.00,,,0.00,weatherlink.com 1.10,2013-05-22 04:53:00,
2013-05-21 23:08:00,54.8,41.0,31.41,NE,35,10.0,14.0,61,0.00,,,0.00,weatherlink.com 1.10,2013-05-22 05:08:00,
2013-05-21 23:23:00,55.0,42.0,31.41,NE,56,9.0,10.0,61,0.00,,,0.00,weatherlink.com 1.10,2013-05-22 05:23:00,
2013-05-21 23:38:00,54.3,42.0,31.41,ENE,61,11.0,12.0,63,0.00,,,0.00,weatherlink.com 1.10,2013-05-22 05:38:00,
2013-05-21 23:53:00,54.5,42.0,31.42,East,79,9.0,13.0,63,0.00,,,0.00,weatherlink.com 1.10,2013-05-22 05:53:00,